Погода в Ванаваре

Погода в Ванаваре : погода сейчас, прогноз погоды и архив. Всё, что Вы хотите узнать о погоде в Ванаваре!

Хотите узнать прогноз погоды в Ванаваре? Тогда Вам сюда: Погода в Ванаваре

Поиск расширенной информации на нашем сайте:

Другие новости

Новости СМИ2

Главная страница сайта

Новости сайта

03.07.2017

Напоминаем, что на нашем специализированном сайте Метеоцентр.Азия вы можете получить высокодетализированные автоматические прогнозы погоды по пунктам России, СНГ и мира в авиационном формате (включающие направление и скорость ветра, видимость, явления погоды, количество и форму облачности, нижнюю и верхнюю границу облачности).

Рекомендуем: Заправка картриджей Xerox Фрунзенская.

Погода в Ванаваре - сегодня

Время (UTC), дата Ветер
(°,м/с) 
Видим.   Явления Облачность Т
(°С)
Тd
(°С)
f(%) Тe
(°С)
Pmin
(гПа)
dP
(гПа)
Po
(мм)
O2
(г/м3)
Тmin Tmax R s Состояние
почвы
18 19.09.17 040 (СВ) 20000 м  в посл. час ливневой дождь  10/8 600 м кучево-дожд., средняя 
[Cb cap|As op]
+3 +2.1 94 +4  1013.8  0.3  736  293           
21 19.09.17 тихо ()   20000 м    10/6 600 м кучево-дожд., средняя 
[Cb cap|As op]
+2.2 +1.3 94 +2  1013.6  -0.3  736  294           
00 20.09.17 040 (СВ) 20000 м    10/8 1000 м средняя 
[Sc|As op]
+1.8 +0.9 94 +3  1014.6  737  295  +1.8    0.0     
03 20.09.17 050 (СВ) 20000 м    10/3 1000 м средняя 
[Sc|Ac As]
+4.2 +1 80 +4  1015.2  0.8  737  292           
06 20.09.17 020 (С) 20000 м    10/3 1000 м средняя 
[Sc|Ac und]
+8 -0.1 57 +9  1014.8  737  289           
09 20.09.17 010 (С) 20000 м    9/1 1000 м средняя 
[Cu hum|Ac trans]
+8.2 -2.4 47 +9  1014.7  737  289           
12 20.09.17 тихо ()   20000 м    9/0 средняя 
[Ac trans]
+4.4 -0.4 71 +4  1015.7  0.5  738  293    +8.8       
15 20.09.17 тихо ()   20000 м    3/0 средняя 
[Ac trans]
-1.9 -2.9 93 -2  1016.9  0.4  738  300           
18 20.09.17 тихо ()   20000 м    ясно 
-4.3 -5 95 -4  1016.9  -0.3  738  303           
21 20.09.17 тихо ()   20000 м    ясно 
-6.5 -7.3 94 -7  1016.8  -0.3  738  305           
00 21.09.17 тихо ()   20000 м    3/0 верхняя 
[Ci fib]
-6.7 -7.7 93 -7  1016.8  738  305  -7.9         
03 21.09.17 210 (ЮЗ) 20000 м    4/0 верхняя 
[Ci fib]
+3.8 -0.4 74 +5  1015  -0.6  737  293           
06 21.09.17 290 (З) 20000 м    10/3 600 м верхняя 
[Cu hum|Cs]
+9.8 -3.9 38 +11  1012.5  -1.7  736  287           
09 21.09.17 300 (СЗ) 20000 м    10/3 1000 м средняя, верхняя 
[Cu hum|Ac trans|Ci fib]
+10.7 -3.8 36 +12  1010.4  -2  734  285           
12 21.09.17 тихо ()   20000 м    8/1 1000 м верхняя 
[Sc|Ci fib]
+1.8 -3.3 69 +2  1011  -0.3  734  294    +10.8       
15 21.09.17 220 (ЮЗ) 20000 м    10/0 верхняя 
[Ci fib]
-3.1 -3.5 97 -3  1010.8  -0.8  734  299           
18 21.09.17 тихо ()   20000 м    10/0 средняя, верхняя 
[Ac trans|Ci fib]
-3.9 -4.1 98 -4  1009.7  -1.2  733  300           
21 21.09.17 040 (СВ) 20000 м    10/0 средняя, верхняя 
[Ac trans|Ci fib]
-4.1 -4.7 96 -4  1008.7  -0.9  732  300           
00 22.09.17 тихо ()   20000 м    5/3 1000 м средняя, верхняя 
[Sc|Ac trans|Ci fib]
-6.1 -6.9 94 -6  1009  -0.1  732  302  -6.7         
03 22.09.17 040 (СВ) 20000 м    10/8 1000 м средняя, верхняя 
[Sc|Ac trans|Ci fib]
+4.5 -2.2 62 +5  1007.3  -0.4  732  290           
06 22.09.17 310 (СЗ) 20000 м    10/5 300 м средняя, верхняя 
[Cu Sc|Ac trans|Ci fib]
+10 -6.4 31 +11  1005.9  -0.7  731  285           
09 22.09.17 270 (З) 20000 м    8/6 300 м верхняя 
[Cu Sc|Ci fib]
+11 -6.2 29 +12  1005.6  -0.1  731  284           
12 22.09.17 020 (С) 20000 м    9/6 1000 м средняя, верхняя 
[Sc|Ac trans|Ci fib]
+0.3 -3.8 74 +1  1008.1  1.2  732  295    +11.2       
15 22.09.17 030 (СВ) 20000 м    ясно 
-2.6 -4.1 89 -2  1009.2  0.7  733  298           
18 22.09.17 тихо ()   20000 м    ясно 
-5 -5.4 97 -5  1010.3  0.7  733  301           
Время (UTC), дата Ветер
(°,м/с) 
Видим.   Явления Облачность Т
(°С)
Тd
(°С)
f(%) Тe
(°С)
Pmin
(гПа)
dP
(гПа)
Po
(мм)
O2
(г/м3)
Тmin Tmax R s Состояние
почвы

Для получения пояснительной информации подведите курсор к названию столбца.

ПОГОДА в Ванаваре - архив

Всё, что Вы хотите узнать о погоде в Ванаваре - удобно и подробно!

Выберите нужную дату (начиная с 1 января 2015* года) и нажмите кнопку "Найти".
Будут отображены архивные сводки погоды по пункту Ванавара, начиная с указанной даты.


Отображать данные в формате CSV (для использования в таблицах Excel)


Внимание! Наш архив погоды предназначен исключительно для личного некоммерческого использования в познавательных целях. Если Вам необходимы официальные справки о состоянии погоды (для производственных, юридических, коммерческих и т.п. целей), обращайтесь в органы Росгидромета.

*Примечание: данная дата относится к архиву по метеостанциям СССР (Россия, СНГ, Балтия).
Архив по метеостанциям Зарубежной Европы и Азии (кроме Китая) хранится 10 дней, по другим регионам земного шара (Китай, Африка, Америка, Австралия, Океания) - 1 день.

Ванавара - район местоположения метеостанции


Название, широта, долгота, высота метеостанции:
Ванавара 60.3°ш. 102.3°д. 260 м над ур. моря [Российская Федерация]

Дополнительная информация

В oтличие oт бoльшинства пoгoдных сайтoв мы публикуем пoдрoбную метеoинфoрмацию в детальнoм прoфессиoнальнoм фoрмате.

Характеристики температуры и влажнoсти вoздуха измеряются на высoте 2 м в тени вдали oт зданий и деревьев.
Скoрoсть ветра измеряется на высoте 10 м (на урoвне рoста челoвека скoрoсть ветра ниже в 1.5-2 раза). Если метеoстанция нахoдится в гoрoде или в лесу, тo скoрoсть ветра занижена на 2-4 м/с пo сравнению с oткрытым местoм. Скoрoсть ветра над акватoриями крупных рек и oзёр, а также на вершинах хoлмoв на 2-5 м/с выше, чем в oбычных услoвиях.
Атмoсфернoе давление в разных тoчках местнoсти мoжет значительнo oтличаться oт давления на метеoстанции, в зависимoсти oт услoвий рельефа (при пoдъёме на 10 м давление пoнижается примернo на 1 мм рт.ст.).